Lapse_Rate
1.0 1.0 1.1 0.3 0.2 -0.7 -0.7 -0.7 -1.9 -2.2 -2.5 -2.6 -2.3 -1.1 -0.4 -0.3 -0.7 0.4 0.4 -0.2 -0.6 -0.7
0.1 1.3 0.2 -0.8 -0.5 -0.8 -1.2 -2.1 -3.0 -2.8 -2.9 -2.9 -1.9 0.4 0.5 0.4 0.4 1.0 0.2 -0.6 -0.0 -0.5
-0.1 0.3 0.3 -1.4 -1.9 -2.5 -3.2 -2.7 -3.2 -2.9 -2.5 -2.2 0.4 1.0 0.6 0.7 1.1 1.2 0.7 0.7 0.0 1.1
-2.0 -2.2 -3.1 -2.9 -3.1 -2.9 -2.5 -2.5 -1.9 -1.5 -1.0 0.7 0.9 0.8 0.9 1.2 1.1 0.9 1.2 0.6 1.3 2.6
-3.7 -3.3 -2.8 -3.3 -2.2 -1.1 -1.2 -0.2 0.9 0.7 1.3 0.3 0.0 0.8 1.2 1.0 0.7 0.7 0.5 -0.3 0.7 2.9
-2.2 -2.9 -2.6 -1.6 1.0 1.4 1.8 1.5 1.5 0.6 -0.1 -0.2 1.0 1.2 1.3 1.8 1.8 2.0 2.3 3.5 4.4 3.9
-0.0 -0.2 0.6 1.7 2.0 1.9 2.0 0.7 0.2 0.2 0.6 1.8 2.0 2.1 2.2 2.1 2.4 3.3 3.9 4.4 2.8 3.0
2.4 2.1 1.6 1.8 1.6 1.5 1.4 0.8 0.1 0.5 1.6 2.1 2.1 2.0 1.3 1.9 1.9 2.1 1.8 1.0 1.0 1.6
2.9 2.5 1.2 1.2 1.2 1.3 1.7 1.9 1.9 2.2 2.1 1.9 2.4 2.8 2.9 2.4 1.9 1.2 1.1 0.9 3.1 2.8
3.1 2.1 1.6 1.4 2.1 2.4 2.3 2.3 1.5 1.5 1.5 1.9 3.0 3.9 2.9 1.9 1.3 2.0 3.3 2.7 2.3 2.4
3.2 3.5 3.5 3.0 2.6 1.9 2.2 2.0 1.6 1.8 1.8 1.5 2.1 2.7 2.4 2.3 2.8 2.3 2.3 2.2 1.9 1.9
3.5 3.6 3.3 2.8 2.4 2.6 2.3 2.3 2.0 1.4 1.5 1.6 2.6 4.3 4.4 3.7 2.5 2.9 3.4 2.5 2.6 3.7
4.2 4.1 3.4 2.7 2.3 2.5 2.2 1.2 1.2 1.9 2.8 4.8 3.6 6.0 6.1 4.3 3.0 2.5 2.4 2.3 3.6 5.6
3.6 3.1 3.0 2.4 2.2 2.8 2.6 2.7 2.3 2.0 1.4 1.8 3.4 3.2 6.5 6.7 3.7 4.5 4.7 4.4 4.1 4.2
Wind_Speed
9 8 9 11 8 10 11 12 11 12 11 9 9 8 6 4 3 5 4 7 4 3
9 10 9 11 9 9 8 8 13 14 12 10 9 9 9 6 5 5 6 5 4 4
9 11 10 8 9 8 6 10 11 12 12 10 10 10 10 8 7 7 4 2 6 1
5 6 6 6 7 8 9 10 12 11 10 11 11 11 11 9 8 9 5 4 2 3
5 6 6 6 6 8 9 9 8 10 11 11 11 11 10 10 7 7 4 3 4 5
4 7 7 8 9 10 11 11 11 13 12 12 12 11 9 9 7 6 5 3 1 0
5 7 7 8 9 11 11 13 13 13 14 13 12 11 9 8 7 6 5 3 4 4
8 9 12 11 12 12 12 13 14 15 13 12 11 8 10 9 7 6 4 4 3 4
10 11 12 13 13 13 13 13 14 13 13 12 8 17 13 8 5 4 2 4 3 2
10 11 12 13 13 13 12 12 13 12 11 10 8 14 13 10 4 4 2 1 1 3
10 10 11 13 12 12 9 11 10 10 9 7 8 12 10 8 4 4 2 1 2 2
9 8 10 11 10 8 11 8 7 7 6 7 6 11 10 6 3 3 1 1 2 4
9 9 10 10 9 7 8 7 6 6 5 7 4 7 6 6 3 0 3 3 3 8
9 9 8 8 7 7 7 7 7 7 5 6 5 5 5 7 2 0 0 2 3 3
Wind_Direction
219 200 202 198 184 194 194 200 186 181 176 175 163 154 145 129 118 131 114 116 109 113
205 201 192 191 194 197 186 176 173 169 165 156 146 143 130 124 113 107 113 117 126 125
199 199 195 176 179 163 152 157 163 163 159 140 138 134 123 116 117 113 94 99 118 218
176 163 143 150 147 148 140 145 150 151 139 136 135 131 123 118 112 106 114 94 128 234
126 123 124 119 119 124 124 128 134 132 130 125 118 113 114 109 108 109 107 125 155 223
130 122 122 120 127 122 128 122 125 121 118 109 105 99 94 103 115 132 154 141 223 293
83 102 110 114 112 113 119 117 112 107 105 105 106 105 106 101 95 81 63 70 44 4
69 90 98 99 100 100 104 107 107 106 100 101 99 100 95 95 96 90 52 21 326 254
72 77 87 92 97 98 98 99 98 98 103 100 102 114 113 98 87 100 107 240 238 306
69 78 81 92 89 89 95 101 98 97 94 94 102 113 107 112 142 179 151 86 349 7
86 88 95 93 95 92 95 95 98 94 97 98 113 119 129 140 137 102 80 359 28 342
100 96 92 93 95 99 97 92 86 91 111 104 138 153 139 123 105 122 229 39 4 287
86 91 90 92 91 92 99 98 98 115 99 154 159 153 131 146 166 31 17 357 326 309
77 88 90 97 112 126 106 98 86 84 69 70 71 32 38 29 87 316 237 293 293 279